Location: Anne Acres
(38.7004°N, 75.0827°W)
Time: 08:18:30
(UTC+00:00)

Courier 1B Rocket - Pass Details

Date: 20 November 2024
Orbit: 920 x 1201 km, 28.2° (Epoch: 06 December)

Event Time Altitude Azimuth Distance (km) Brightness Sun altitude
Rises 22:22:59 0° 261° (W) 3,807 10.2 -8.0°
Reaches altitude 10° 22:26:40 10° 243° (WSW) 2,795 9.0 -8.7°
Maximum altitude 22:31:01 18° 203° (SSW) 2,195 7.4 -9.5°
Drops below altitude 10° 22:35:13 10° 162° (SSE) 2,675 7.3 -10.3°
Sets 22:38:39 0° 144° (SE) 3,582 7.8 -10.9°
